| time (UTC) | temp F | wind direction | speed MPH | gust MPH | rain 1hr in | rain 24hr in | rain mn in | humidity % | barometer mb |
| 20260506215853 | 61 | 165 | 0.0 | 0.0 | 0.00 | 0.23 | 0.23 | 97 | 1003.8 |
| 20260506215348 | 61 | 164 | 0.0 | 0.0 | 0.00 | 0.23 | 0.23 | 97 | 1003.6 |
| 20260506214844 | 61 | 159 | 1.0 | 2.0 | 0.00 | 0.23 | 0.23 | 97 | 1003.5 |
| 20260506214341 | 62 | 163 | 1.0 | 2.0 | 0.00 | 0.23 | 0.23 | 96 | 1003.5 |
| 20260506213839 | 61 | 158 | 0.0 | 0.0 | 0.00 | 0.23 | 0.23 | 96 | 1003.4 |
| 20260506213336 | 61 | 155 | 1.0 | 1.0 | 0.00 | 0.23 | 0.23 | 97 | 1003.7 |
| 20260506212834 | 61 | 155 | 0.0 | 0.0 | 0.00 | 0.23 | 0.23 | 99 | 1003.4 |
| 20260506212329 | 60 | 135 | 0.0 | 1.0 | 0.00 | 0.23 | 0.23 | 99 | 1003.6 |
| 20260506211824 | 60 | 165 | 1.0 | 2.0 | 0.00 | 0.23 | 0.23 | 99 | 1003.5 |
| 20260506211321 | 60 | 156 | 1.0 | 1.0 | 0.00 | 0.23 | 0.23 | 99 | 1003.7 |
| 20260506210818 | 60 | 134 | 1.0 | 1.0 | 0.00 | 0.23 | 0.23 | 99 | 1003.6 |
| 20260506210315 | 60 | 338 | 0.0 | 1.0 | 0.00 | 0.23 | 0.23 | 99 | 1003.4 |
| 20260506205812 | 61 | 210 | 1.0 | 2.0 | 0.00 | 0.23 | 0.23 | 98 | 1003.2 |
| 20260506205308 | 61 | 210 | 1.0 | 1.0 | 0.00 | 0.23 | 0.23 | 97 | 1003.4 |
| 20260506204804 | 61 | 210 | 2.0 | 2.0 | 0.00 | 0.23 | 0.23 | 97 | 1003.3 |
| 20260506204302 | 61 | 225 | 3.0 | 4.0 | 0.00 | 0.23 | 0.23 | 97 | 1003.4 |
| 20260506203759 | 62 | 205 | 2.0 | 3.0 | 0.00 | 0.23 | 0.23 | 97 | 1003.4 |
| 20260506203251 | 61 | 204 | 2.0 | 2.0 | 0.00 | 0.23 | 0.23 | 96 | 1003.2 |
| 20260506202748 | 61 | 207 | 2.0 | 2.0 | 0.00 | 0.23 | 0.23 | 98 | 1003.4 |
| 20260506202245 | 60 | 215 | 2.0 | 2.0 | 0.00 | 0.23 | 0.23 | 97 | 1003.3 |
| 20260506201742 | 60 | 135 | 2.0 | 2.0 | 0.00 | 0.23 | 0.23 | 99 | 1003.5 |
| 20260506201238 | 60 | 215 | 1.0 | 2.0 | 0.00 | 0.23 | 0.23 | 99 | 1003.3 |
| 20260506200736 | 60 | 222 | 1.0 | 2.0 | 0.00 | 0.23 | 0.23 | 99 | 1003.7 |
| 20260506200232 | 60 | 223 | 2.0 | 2.0 | 0.00 | 0.23 | 0.23 | 99 | 1003.7 |
| 20260506195728 | 60 | 211 | 1.0 | 1.0 | 0.00 | 0.23 | 0.23 | 99 | 1003.7 |
| 20260506195224 | 60 | 211 | 1.0 | 2.0 | 0.00 | 0.23 | 0.23 | 99 | 1003.5 |
| 20260506194721 | 59 | 208 | 3.0 | 3.0 | 0.00 | 0.23 | 0.23 | 99 | 1003.8 |
| 20260506194218 | 59 | 253 | 2.0 | 3.0 | 0.00 | 0.23 | 0.23 | 99 | 1003.8 |
| 20260506193716 | 59 | 145 | 1.0 | 1.0 | 0.00 | 0.23 | 0.23 | 99 | 1003.7 |
| 20260506193213 | 59 | 198 | 2.0 | 3.0 | 0.00 | 0.23 | 0.23 | 99 | 1003.8 |
| 20260506192709 | 59 | 199 | 2.0 | 2.0 | 0.00 | 0.23 | 0.23 | 99 | 1004.3 |
| 20260506192205 | 60 | 220 | 0.0 | 1.0 | 0.00 | 0.23 | 0.23 | 99 | 1003.8 |
| 20260506191658 | 60 | 160 | 1.0 | 1.0 | 0.00 | 0.23 | 0.23 | 99 | 1003.9 |
| 20260506191153 | 60 | 161 | 1.0 | 1.0 | 0.00 | 0.23 | 0.23 | 99 | 1003.9 |
| 20260506190651 | 60 | 227 | 3.0 | 3.0 | 0.00 | 0.23 | 0.23 | 99 | 1004.3 |
| 20260506190147 | 60 | 254 | 2.0 | 3.0 | 0.00 | 0.23 | 0.23 | 99 | 1004.0 |
| 20260506185645 | 60 | 225 | 2.0 | 2.0 | 0.00 | 0.23 | 0.23 | 99 | 1004.0 |
| 20260506185140 | 60 | 200 | 0.0 | 0.0 | 0.00 | 0.23 | 0.23 | 99 | 1004.3 |
| 20260506184639 | 60 | 218 | 1.0 | 1.0 | 0.00 | 0.23 | 0.23 | 99 | 1004.3 |
| 20260506184136 | 60 | 219 | 2.0 | 2.0 | 0.00 | 0.23 | 0.23 | 99 | 1004.4 |
| 20260506183632 | 59 | 221 | 1.0 | 1.0 | 0.00 | 0.23 | 0.23 | 99 | 1003.9 |
| 20260506183128 | 60 | 166 | 0.0 | 1.0 | 0.00 | 0.23 | 0.23 | 99 | 1004.4 |
| 20260506182626 | 59 | 219 | 1.0 | 2.0 | 0.07 | 0.23 | 0.23 | 99 | 1004.4 |
| 20260506182122 | 59 | 222 | 3.0 | 3.0 | 0.07 | 0.23 | 0.23 | 99 | 1004.4 |
| 20260506181620 | 59 | 207 | 2.0 | 3.0 | 0.00 | 0.22 | 0.22 | 99 | 1004.4 |
| 20260506181117 | 59 | 213 | 2.0 | 2.0 | 0.00 | 0.22 | 0.22 | 99 | 1004.5 |
| 20260506180614 | 59 | 197 | 2.0 | 2.0 | 0.00 | 0.22 | 0.22 | 99 | 1004.5 |
| 20260506180110 | 59 | 338 | 3.0 | 4.0 | 0.00 | 0.22 | 0.22 | 99 | 1004.7 |
| 20260506175606 | 59 | 237 | 2.0 | 3.0 | 0.00 | 0.22 | 0.22 | 99 | 1004.6 |
| 20260506175057 | 59 | 218 | 2.0 | 2.0 | 0.00 | 0.22 | 0.22 | 99 | 1004.9 |
| 20260506174556 | 59 | 212 | 3.0 | 4.0 | 0.00 | 0.22 | 0.22 | 99 | 1004.6 |
| 20260506174052 | 58 | 214 | 2.0 | 3.0 | 0.00 | 0.22 | 0.22 | 99 | 1004.6 |
| 20260506173550 | 58 | 236 | 4.0 | 4.0 | 0.00 | 0.22 | 0.22 | 99 | 1004.8 |
| 20260506173046 | 58 | 229 | 3.0 | 3.0 | 0.00 | 0.22 | 0.22 | 99 | 1004.7 |
| 20260506172544 | 58 | 230 | 3.0 | 4.0 | 0.00 | 0.22 | 0.22 | 99 | 1004.9 |
| 20260506172039 | 58 | 230 | 3.0 | 3.0 | 0.05 | 0.22 | 0.22 | 99 | 1004.6 |
| 20260506171536 | 58 | 307 | 4.0 | 6.0 | 0.05 | 0.22 | 0.22 | 99 | 1004.7 |
| 20260506171034 | 58 | 255 | 3.0 | 4.0 | 0.00 | 0.21 | 0.21 | 99 | 1004.7 |
| 20260506170531 | 59 | 190 | 2.0 | 3.0 | 0.07 | 0.21 | 0.21 | 99 | 1004.7 |
| 20260506170023 | 59 | 195 | 1.0 | 1.0 | 0.14 | 0.21 | 0.21 | 99 | 1004.8 |
| 20260506165521 | 59 | 232 | 3.0 | 4.0 | 0.07 | 0.20 | 0.20 | 99 | 1004.8 |
| 20260506165012 | 59 | 331 | 2.0 | 3.0 | 0.00 | 0.19 | 0.19 | 99 | 1004.6 |
| 20260506164509 | 59 | 195 | 3.0 | 3.0 | 0.00 | 0.19 | 0.19 | 99 | 1004.8 |
| 20260506164007 | 59 | 189 | 1.0 | 2.0 | 0.05 | 0.19 | 0.19 | 99 | 1004.8 |
| 20260506163502 | 59 | 205 | 0.0 | 0.0 | 0.05 | 0.19 | 0.19 | 99 | 1004.8 |
| 20260506162956 | 59 | 188 | 1.0 | 1.0 | 0.00 | 0.18 | 0.18 | 99 | 1004.8 |
| 20260506162454 | 59 | 184 | 2.0 | 3.0 | 0.07 | 0.18 | 0.18 | 99 | 1004.7 |
| 20260506161945 | 59 | 175 | 3.0 | 4.0 | 0.07 | 0.18 | 0.18 | 99 | 1004.8 |
| 20260506161443 | 59 | 197 | 1.0 | 2.0 | 0.05 | 0.17 | 0.17 | 99 | 1005.1 |
| 20260506160935 | 58 | 179 | 1.0 | 1.0 | 0.05 | 0.17 | 0.17 | 99 | 1005.1 |
| 20260506160432 | 58 | 232 | 4.0 | 6.0 | 0.07 | 0.16 | 0.16 | 99 | 1005.2 |
| 20260506155929 | 58 | 206 | 2.0 | 2.0 | 0.12 | 0.16 | 0.16 | 99 | 1005.4 |
| 20260506155426 | 58 | 181 | 1.0 | 1.0 | 0.12 | 0.15 | 0.15 | 99 | 1005.6 |
| 20260506153548 | 59 | 197 | 1.0 | 1.0 | 0.07 | 0.12 | 0.12 | 99 | 1005.5 |
| 20260506153046 | 59 | 156 | 1.0 | 1.0 | 0.00 | 0.11 | 0.11 | 99 | 1005.5 |
| 20260506152542 | 59 | 213 | 3.0 | 4.0 | 0.00 | 0.11 | 0.11 | 99 | 1005.5 |
| 20260506152041 | 59 | 201 | 2.0 | 3.0 | 0.05 | 0.11 | 0.11 | 99 | 1005.5 |
| 20260506151538 | 59 | 233 | 2.0 | 2.0 | 0.12 | 0.11 | 0.11 | 99 | 1005.5 |
| 20260506151035 | 59 | 263 | 4.0 | 4.0 | 0.07 | 0.10 | 0.10 | 99 | 1005.2 |
| 20260506150531 | 59 | 151 | 1.0 | 2.0 | 0.05 | 0.09 | 0.09 | 99 | 1005.6 |
| 20260506150029 | 59 | 274 | 5.0 | 8.0 | 0.05 | 0.09 | 0.09 | 99 | 1005.5 |
| 20260506145525 | 59 | 167 | 6.0 | 7.0 | 0.07 | 0.08 | 0.08 | 99 | 1005.6 |
| 20260506145023 | 59 | 201 | 1.0 | 2.0 | 0.14 | 0.08 | 0.08 | 99 | 1005.7 |
| 20260506144519 | 59 | 149 | 0.0 | 0.0 | 0.07 | 0.07 | 0.07 | 99 | 1005.7 |
| 20260506144017 | 59 | 159 | 0.0 | 1.0 | 0.00 | 0.06 | 0.06 | 99 | 1005.9 |
| 20260506143514 | 59 | 155 | 1.0 | 2.0 | 0.05 | 0.06 | 0.06 | 99 | 1005.9 |
| 20260506143013 | 59 | 155 | 1.0 | 2.0 | 0.12 | 0.06 | 0.06 | 99 | 1005.7 |
| 20260506142510 | 59 | 169 | 0.0 | 1.0 | 0.12 | 0.05 | 0.05 | 99 | 1006.0 |
| 20260506142008 | 59 | 201 | 1.0 | 1.0 | 0.05 | 0.04 | 0.04 | 98 | 1006.0 |
| 20260506141506 | 59 | 250 | 2.0 | 2.0 | 0.07 | 0.03 | 0.03 | 98 | 1006.0 |
| 20260506141004 | 59 | 270 | 2.0 | 3.0 | 0.07 | 0.03 | 0.03 | 98 | 1006.1 |
| 20260506140500 | 59 | 166 | 0.0 | 1.0 | 0.07 | 0.03 | 0.03 | 98 | 1006.0 |
| 20260506135957 | 59 | 166 | 1.0 | 2.0 | 0.05 | 0.02 | 0.02 | 97 | 1006.2 |
| 20260506135455 | 60 | 236 | 0.0 | 1.0 | 0.07 | 0.01 | 0.01 | 95 | 1006.1 |
| 20260506134950 | 60 | 232 | 2.0 | 2.0 | 0.07 | 0.01 | 0.01 | 94 | 1006.2 |
| 20260506134446 | 60 | 225 | 1.0 | 1.0 | 0.00 | 0.00 | 0.00 | 91 | 1006.2 |
| 20260506133943 | 61 | 220 | 1.0 | 1.0 | 0.00 | 0.00 | 0.00 | 90 | 1006.3 |
| 20260506133440 | 61 | 248 | 2.0 | 2.0 | 0.00 | 0.00 | 0.00 | 89 | 1006.5 |
| 20260506132937 | 61 | 256 | 4.0 | 4.0 | 0.00 | 0.00 | 0.00 | 88 | 1006.2 |
| 20260506132434 | 61 | 212 | 3.0 | 4.0 | 0.00 | 0.00 | 0.00 | 88 | 1006.1 |
| 20260506131932 | 61 | 271 | 2.0 | 6.0 | 0.00 | 0.00 | 0.00 | 88 | 1006.2 |
| 20260506131428 | 61 | 157 | 2.0 | 3.0 | 0.00 | 0.00 | 0.00 | 88 | 1006.1 |
| 20260506130925 | 61 | 185 | 1.0 | 2.0 | 0.00 | 0.00 | 0.00 | 88 | 1006.1 |
| 20260506130421 | 61 | 246 | 3.0 | 3.0 | 0.00 | 0.00 | 0.00 | 88 | 1005.9 |
| 20260506125920 | 61 | 233 | 2.0 | 2.0 | 0.00 | 0.00 | 0.00 | 87 | 1005.4 |
| 20260506125418 | 61 | 223 | 1.0 | 3.0 | 0.00 | 0.00 | 0.00 | 87 | 1005.6 |
| 20260506124916 | 61 | 212 | 1.0 | 2.0 | 0.00 | 0.00 | 0.00 | 86 | 1005.7 |
| 20260506124413 | 61 | 152 | 1.0 | 2.0 | 0.00 | 0.00 | 0.00 | 86 | 1005.6 |
| 20260506123911 | 62 | 208 | 2.0 | 2.0 | 0.00 | 0.00 | 0.00 | 85 | 1005.5 |
| 20260506123408 | 62 | 159 | 0.0 | 1.0 | 0.00 | 0.00 | 0.00 | 84 | 1005.5 |
| 20260506122905 | 62 | 150 | 1.0 | 2.0 | 0.00 | 0.00 | 0.00 | 84 | 1005.8 |
| 20260506122402 | 62 | 220 | 0.0 | 1.0 | 0.00 | 0.00 | 0.00 | 84 | 1005.9 |
| 20260506121901 | 62 | 201 | 4.0 | 4.0 | 0.00 | 0.00 | 0.00 | 83 | 1006.0 |
| 20260506121357 | 62 | 210 | 1.0 | 2.0 | 0.00 | 0.00 | 0.00 | 82 | 1006.0 |
| 20260506120854 | 62 | 224 | 1.0 | 1.0 | 0.00 | 0.00 | 0.00 | 82 | 1006.0 |
| 20260506120352 | 62 | 174 | 2.0 | 2.0 | 0.00 | 0.00 | 0.00 | 82 | 1006.1 |
| 20260506115849 | 62 | 249 | 4.0 | 4.0 | 0.00 | 0.00 | 0.00 | 81 | 1005.9 |
| 20260506115347 | 62 | 203 | 1.0 | 1.0 | 0.00 | 0.00 | 0.00 | 81 | 1006.0 |
| 20260506114845 | 62 | 196 | 2.0 | 2.0 | 0.00 | 0.00 | 0.00 | 81 | 1006.1 |
| 20260506114342 | 62 | 233 | 2.0 | 3.0 | 0.00 | 0.00 | 0.00 | 81 | 1006.0 |
| 20260506113841 | 62 | 200 | 1.0 | 2.0 | 0.00 | 0.00 | 0.00 | 81 | 1005.8 |
| 20260506113338 | 62 | 315 | 2.0 | 2.0 | 0.00 | 0.00 | 0.00 | 80 | 1005.8 |
| 20260506112834 | 62 | 207 | 5.0 | 7.0 | 0.00 | 0.00 | 0.00 | 80 | 1005.8 |
| 20260506112332 | 62 | 237 | 2.0 | 4.0 | 0.00 | 0.00 | 0.00 | 80 | 1005.9 |
| 20260506111829 | 62 | 177 | 4.0 | 6.0 | 0.00 | 0.00 | 0.00 | 79 | 1005.7 |
| 20260506111328 | 62 | 246 | 5.0 | 7.0 | 0.00 | 0.00 | 0.00 | 79 | 1005.8 |
| 20260506110824 | 62 | 242 | 2.0 | 2.0 | 0.00 | 0.00 | 0.00 | 78 | 1005.5 |
| 20260506110321 | 62 | 250 | 4.0 | 8.0 | 0.00 | 0.00 | 0.00 | 78 | 1005.8 |
| 20260506105818 | 62 | 205 | 2.0 | 2.0 | 0.00 | 0.00 | 0.00 | 79 | 1005.5 |
| 20260506105315 | 62 | 126 | 2.0 | 2.0 | 0.00 | 0.00 | 0.00 | 79 | 1005.5 |
| 20260506104812 | 62 | 66 | 1.0 | 1.0 | 0.00 | 0.00 | 0.00 | 78 | 1005.6 |
| 20260506104310 | 62 | 223 | 2.0 | 2.0 | 0.00 | 0.00 | 0.00 | 77 | 1005.4 |
| 20260506103808 | 62 | 231 | 3.0 | 4.0 | 0.00 | 0.00 | 0.00 | 78 | 1005.4 |
| 20260506103305 | 62 | 186 | 2.0 | 3.0 | 0.00 | 0.00 | 0.00 | 77 | 1005.6 |
| 20260506102802 | 62 | 250 | 6.0 | 8.0 | 0.00 | 0.00 | 0.00 | 77 | 1005.4 |
| 20260506102300 | 62 | 230 | 2.0 | 2.0 | 0.00 | 0.00 | 0.00 | 77 | 1005.8 |
| 20260506101757 | 62 | 235 | 5.0 | 8.0 | 0.00 | 0.00 | 0.00 | 76 | 1005.4 |
| 20260506101253 | 62 | 344 | 2.0 | 3.0 | 0.00 | 0.00 | 0.00 | 76 | 1005.8 |
| 20260506100751 | 62 | 215 | 1.0 | 1.0 | 0.00 | 0.00 | 0.00 | 76 | 1005.4 |
| 20260506100249 | 62 | 214 | 4.0 | 6.0 | 0.00 | 0.00 | 0.00 | 75 | 1005.5 |
| 20260506095747 | 62 | 166 | 2.0 | 3.0 | 0.00 | 0.00 | 0.00 | 75 | 1005.6 |
| 20260506095244 | 62 | 221 | 2.0 | 3.0 | 0.00 | 0.00 | 0.00 | 75 | 1005.7 |
| 20260506094740 | 62 | 179 | 1.0 | 1.0 | 0.00 | 0.00 | 0.00 | 75 | 1005.3 |
| 20260506094239 | 62 | 246 | 5.0 | 6.0 | 0.00 | 0.00 | 0.00 | 74 | 1005.5 |
| 20260506093737 | 62 | 223 | 1.0 | 1.0 | 0.00 | 0.00 | 0.00 | 74 | 1005.5 |
| 20260506093234 | 62 | 218 | 2.0 | 2.0 | 0.00 | 0.00 | 0.00 | 73 | 1005.4 |
| 20260506092732 | 62 | 201 | 1.0 | 1.0 | 0.00 | 0.00 | 0.00 | 73 | 1005.4 |
| 20260506092230 | 62 | 209 | 1.0 | 2.0 | 0.00 | 0.00 | 0.00 | 73 | 1005.5 |
| 20260506091727 | 62 | 209 | 1.0 | 1.0 | 0.00 | 0.00 | 0.00 | 73 | 1005.1 |
| 20260506091224 | 62 | 131 | 3.0 | 4.0 | 0.00 | 0.00 | 0.00 | 72 | 1005.7 |
| 20260506090721 | 62 | 209 | 2.0 | 2.0 | 0.00 | 0.00 | 0.00 | 72 | 1005.8 |
| 20260506090218 | 62 | 276 | 4.0 | 6.0 | 0.00 | 0.00 | 0.00 | 72 | 1005.7 |
| 20260506085710 | 62 | 163 | 0.0 | 2.0 | 0.00 | 0.00 | 0.00 | 72 | 1005.8 |
| 20260506085206 | 62 | 189 | 2.0 | 3.0 | 0.00 | 0.00 | 0.00 | 72 | 1005.9 |
| 20260506084703 | 63 | 172 | 2.0 | 2.0 | 0.00 | 0.00 | 0.00 | 70 | 1005.8 |
| 20260506084159 | 63 | 222 | 2.0 | 2.0 | 0.00 | 0.00 | 0.00 | 71 | 1005.7 |
| 20260506083655 | 63 | 228 | 3.0 | 4.0 | 0.00 | 0.00 | 0.00 | 70 | 1005.8 |
| 20260506083153 | 63 | 209 | 1.0 | 1.0 | 0.00 | 0.00 | 0.00 | 70 | 1005.7 |
| 20260506082650 | 63 | 199 | 1.0 | 1.0 | 0.00 | 0.00 | 0.00 | 69 | 1005.7 |
| 20260506082145 | 63 | 191 | 2.0 | 2.0 | 0.00 | 0.00 | 0.00 | 69 | 1005.8 |
| 20260506081643 | 63 | 192 | 3.0 | 3.0 | 0.00 | 0.00 | 0.00 | 68 | 1005.9 |
| 20260506081141 | 63 | 226 | 2.0 | 3.0 | 0.00 | 0.00 | 0.00 | 69 | 1005.8 |
| 20260506080639 | 63 | 226 | 2.0 | 3.0 | 0.00 | 0.00 | 0.00 | 68 | 1005.9 |
| 20260506080135 | 63 | 200 | 1.0 | 1.0 | 0.00 | 0.00 | 0.00 | 68 | 1006.0 |
| 20260506073119 | 64 | 207 | 1.0 | 1.0 | 0.00 | 0.00 | 0.00 | 65 | 1006.0 |
| 20260506072615 | 64 | 185 | 1.0 | 1.0 | 0.00 | 0.00 | 0.00 | 65 | 1005.9 |
| 20260506072114 | 64 | 138 | 0.0 | 1.0 | 0.00 | 0.00 | 0.00 | 65 | 1005.9 |
| 20260506071611 | 64 | 220 | 3.0 | 3.0 | 0.00 | 0.00 | 0.00 | 64 | 1006.0 |
| 20260506071108 | 64 | 232 | 2.0 | 2.0 | 0.00 | 0.00 | 0.00 | 64 | 1006.1 |
| 20260506070605 | 64 | 216 | 1.0 | 1.0 | 0.00 | 0.00 | 0.00 | 64 | 1006.1 |
| 20260506062039 | 65 | 233 | 2.0 | 3.0 | 0.00 | 0.00 | 0.00 | 63 | 1006.5 |
| 20260506061535 | 64 | 222 | 2.0 | 2.0 | 0.00 | 0.00 | 0.00 | 63 | 1006.5 |
| 20260506061033 | 64 | 160 | 2.0 | 2.0 | 0.00 | 0.00 | 0.00 | 63 | 1006.6 |
| 20260506060531 | 65 | 254 | 3.0 | 4.0 | 0.00 | 0.00 | 0.00 | 62 | 1006.3 |
| 20260506051000 | 65 | 191 | 1.0 | 1.0 | 0.00 | 0.00 | 0.00 | 60 | 1006.8 |
| 20260506050458 | 65 | 217 | 4.0 | 4.0 | 0.00 | 0.00 | 0.00 | 59 | 1006.9 |
| 20260506044948 | 66 | 204 | 0.0 | 1.0 | 0.00 | 0.00 | 0.00 | 59 | 1006.9 |
| 20260506044446 | 66 | 217 | 1.0 | 1.0 | 0.00 | 0.00 | 0.00 | 59 | 1006.7 |
| 20260506043943 | 66 | 196 | 1.0 | 1.0 | 0.00 | 0.00 | 0.00 | 57 | 1006.8 |
| 20260506043440 | 66 | 213 | 1.0 | 1.0 | 0.00 | 0.00 | 0.00 | 58 | 1007.0 |
| 20260506042938 | 66 | 212 | 1.0 | 2.0 | 0.00 | 0.00 | 0.00 | 58 | 1006.9 |
| 20260506042437 | 66 | 220 | 2.0 | 3.0 | 0.00 | 0.00 | 0.00 | 56 | 1006.8 |
| 20260506041935 | 66 | 215 | 1.0 | 2.0 | 0.00 | 0.00 | 0.00 | 57 | 1006.9 |
| 20260506041432 | 67 | 194 | 2.0 | 3.0 | 0.00 | 0.00 | 0.00 | 56 | 1006.7 |
| 20260506040929 | 67 | 190 | 2.0 | 3.0 | 0.00 | 0.00 | 0.00 | 56 | 1007.0 |
| 20260506040427 | 66 | 213 | 1.0 | 2.0 | 0.00 | 0.00 | 0.00 | 58 | 1006.8 |
| 20260506035923 | 66 | 263 | 2.0 | 3.0 | 0.00 | 0.00 | 0.00 | 57 | 1006.8 |
| 20260506035421 | 66 | 185 | 1.0 | 2.0 | 0.00 | 0.00 | 0.00 | 57 | 1006.9 |
| 20260506034917 | 66 | 227 | 3.0 | 4.0 | 0.00 | 0.00 | 0.00 | 57 | 1006.8 |
| 20260506034414 | 67 | 200 | 1.0 | 1.0 | 0.00 | 0.00 | 0.00 | 57 | 1006.9 |
| 20260506033911 | 67 | 191 | 0.0 | 1.0 | 0.00 | 0.00 | 0.00 | 56 | 1006.9 |
| 20260506033409 | 67 | 215 | 1.0 | 1.0 | 0.00 | 0.00 | 0.00 | 55 | 1006.7 |
| 20260506032905 | 67 | 233 | 3.0 | 4.0 | 0.00 | 0.00 | 0.00 | 55 | 1006.9 |
| 20260506032402 | 67 | 194 | 3.0 | 3.0 | 0.00 | 0.00 | 0.00 | 54 | 1006.8 |
| 20260506031859 | 68 | 233 | 1.0 | 1.0 | 0.00 | 0.00 | 0.00 | 54 | 1006.6 |
| 20260506031356 | 67 | 228 | 4.0 | 6.0 | 0.00 | 0.00 | 0.00 | 53 | 1006.7 |
| 20260506030854 | 68 | 181 | 1.0 | 1.0 | 0.00 | 0.00 | 0.00 | 53 | 1006.8 |
| 20260506030352 | 68 | 225 | 3.0 | 4.0 | 0.00 | 0.00 | 0.00 | 52 | 1006.8 |
| 20260506025848 | 68 | 199 | 4.0 | 6.0 | 0.00 | 0.00 | 0.00 | 52 | 1006.8 |
| 20260506025344 | 68 | 207 | 1.0 | 1.0 | 0.00 | 0.00 | 0.00 | 53 | 1006.8 |
| 20260506024842 | 68 | 139 | 2.0 | 2.0 | 0.00 | 0.00 | 0.00 | 52 | 1006.8 |
| 20260506024338 | 68 | 194 | 2.0 | 2.0 | 0.00 | 0.00 | 0.00 | 51 | 1006.8 |
| 20260506023835 | 69 | 227 | 2.0 | 4.0 | 0.00 | 0.00 | 0.00 | 48 | 1006.6 |
| 20260506023331 | 69 | 216 | 2.0 | 3.0 | 0.00 | 0.00 | 0.00 | 49 | 1006.9 |
| 20260506022828 | 69 | 239 | 4.0 | 4.0 | 0.00 | 0.00 | 0.00 | 48 | 1006.9 |
| 20260506022326 | 70 | 200 | 3.0 | 4.0 | 0.00 | 0.00 | 0.00 | 48 | 1006.6 |
| 20260506021824 | 70 | 232 | 3.0 | 4.0 | 0.00 | 0.00 | 0.00 | 47 | 1007.0 |
| 20260506021321 | 71 | 214 | 3.0 | 4.0 | 0.00 | 0.00 | 0.00 | 46 | 1006.8 |
| 20260506020817 | 70 | 124 | 2.0 | 3.0 | 0.00 | 0.00 | 0.00 | 48 | 1006.9 |
| 20260506020315 | 70 | 282 | 5.0 | 11.0 | 0.00 | 0.00 | 0.00 | 47 | 1006.5 |
| 20260506015813 | 70 | 206 | 1.0 | 2.0 | 0.00 | 0.00 | 0.00 | 48 | 1006.8 |
| 20260506015310 | 70 | 216 | 2.0 | 2.0 | 0.00 | 0.00 | 0.00 | 47 | 1006.9 |
| 20260506014806 | 70 | 171 | 3.0 | 3.0 | 0.00 | 0.00 | 0.00 | 48 | 1006.7 |
| 20260506014303 | 70 | 213 | 2.0 | 2.0 | 0.00 | 0.00 | 0.00 | 48 | 1006.6 |
| 20260506013800 | 70 | 72 | 2.0 | 3.0 | 0.00 | 0.00 | 0.00 | 46 | 1006.7 |
| 20260506013257 | 71 | 106 | 2.0 | 2.0 | 0.00 | 0.00 | 0.00 | 49 | 1006.5 |
| 20260506012754 | 71 | 209 | 7.0 | 9.0 | 0.00 | 0.00 | 0.00 | 47 | 1006.6 |
| 20260506012251 | 71 | 212 | 2.0 | 3.0 | 0.00 | 0.00 | 0.00 | 46 | 1006.4 |
| 20260506011748 | 72 | 241 | 7.0 | 9.0 | 0.00 | 0.00 | 0.00 | 45 | 1006.4 |
| 20260506011244 | 71 | 222 | 4.0 | 4.0 | 0.00 | 0.00 | 0.00 | 47 | 1006.2 |
| 20260506010743 | 72 | 207 | 2.0 | 2.0 | 0.00 | 0.00 | 0.00 | 47 | 1006.3 |
| 20260506010240 | 71 | 229 | 5.0 | 6.0 | 0.00 | 0.00 | 0.00 | 46 | 1006.2 |
| 20260506005737 | 71 | 157 | 1.0 | 1.0 | 0.00 | 0.00 | 0.00 | 49 | 1006.0 |
| 20260506005233 | 71 | 219 | 2.0 | 3.0 | 0.00 | 0.00 | 0.00 | 47 | 1006.1 |
| 20260506004729 | 71 | 230 | 4.0 | 4.0 | 0.00 | 0.00 | 0.00 | 47 | 1006.0 |
| 20260506004227 | 71 | 218 | 2.0 | 2.0 | 0.00 | 0.00 | 0.00 | 49 | 1005.9 |
| 20260506003723 | 71 | 184 | 1.0 | 2.0 | 0.00 | 0.00 | 0.00 | 49 | 1005.7 |
| 20260506003220 | 71 | 227 | 1.0 | 1.0 | 0.00 | 0.00 | 0.00 | 48 | 1006.0 |
| 20260506002715 | 71 | 203 | 3.0 | 4.0 | 0.00 | 0.00 | 0.00 | 49 | 1005.9 |
| 20260506002212 | 72 | 214 | 2.0 | 3.0 | 0.00 | 0.00 | 0.00 | 48 | 1005.8 |
| 20260506001708 | 72 | 195 | 1.0 | 1.0 | 0.00 | 0.00 | 0.00 | 48 | 1005.8 |
| 20260506001206 | 72 | 181 | 1.0 | 2.0 | 0.00 | 0.00 | 0.00 | 47 | 1005.7 |
| 20260506000702 | 71 | 275 | 4.0 | 4.0 | 0.00 | 0.00 | 0.00 | 48 | 1005.8 |
| 20260506000200 | 72 | 197 | 3.0 | 4.0 | 0.00 | 0.00 | 0.00 | 47 | 1005.8 |
| 20260505235657 | 72 | 161 | 1.0 | 1.0 | 0.00 | 0.00 | 0.00 | 47 | 1005.5 |
| 20260505235155 | 72 | 184 | 1.0 | 1.0 | 0.00 | 0.00 | 0.00 | 46 | 1005.5 |
| 20260505234651 | 72 | 154 | 1.0 | 2.0 | 0.00 | 0.00 | 0.00 | 45 | 1005.4 |
| 20260505234149 | 72 | 204 | 0.0 | 1.0 | 0.00 | 0.00 | 0.00 | 46 | 1005.7 |
| 20260505233645 | 73 | 184 | 4.0 | 4.0 | 0.00 | 0.00 | 0.00 | 44 | 1005.5 |
| 20260505233143 | 74 | 222 | 2.0 | 2.0 | 0.00 | 0.00 | 0.00 | 42 | 1005.5 |
| 20260505232640 | 73 | 211 | 5.0 | 8.0 | 0.00 | 0.00 | 0.00 | 42 | 1005.3 |
| 20260505232138 | 74 | 168 | 2.0 | 3.0 | 0.00 | 0.00 | 0.00 | 42 | 1005.4 |
| 20260505231634 | 73 | 217 | 4.0 | 6.0 | 0.00 | 0.00 | 0.00 | 43 | 1005.2 |
| 20260505231133 | 73 | 175 | 1.0 | 1.0 | 0.00 | 0.00 | 0.00 | 42 | 1005.3 |
| 20260505230631 | 74 | 204 | 0.0 | 0.0 | 0.00 | 0.00 | 0.00 | 43 | 1005.3 |
| 20260505230127 | 74 | 241 | 2.0 | 3.0 | 0.00 | 0.00 | 0.00 | 43 | 1005.2 |
| 20260505225623 | 75 | 216 | 1.0 | 2.0 | 0.00 | 0.00 | 0.00 | 43 | 1005.2 |
| 20260505225120 | 75 | 317 | 4.0 | 6.0 | 0.00 | 0.00 | 0.00 | 41 | 1005.2 |
| 20260505224617 | 75 | 243 | 2.0 | 3.0 | 0.00 | 0.00 | 0.00 | 41 | 1005.0 |
| 20260505224114 | 74 | 278 | 5.0 | 7.0 | 0.00 | 0.00 | 0.00 | 42 | 1005.1 |
| 20260505223611 | 74 | 200 | 2.0 | 2.0 | 0.00 | 0.00 | 0.00 | 44 | 1005.1 |
| 20260505223107 | 74 | 224 | 4.0 | 6.0 | 0.00 | 0.00 | 0.00 | 41 | 1004.8 |
| 20260505222604 | 74 | 248 | 3.0 | 4.0 | 0.00 | 0.00 | 0.00 | 41 | 1004.9 |
| 20260505222100 | 75 | 218 | 4.0 | 7.0 | 0.00 | 0.00 | 0.00 | 41 | 1005.0 |
| 20260505221557 | 75 | 206 | 1.0 | 1.0 | 0.00 | 0.00 | 0.00 | 42 | 1004.8 |
| 20260505221053 | 75 | 231 | 5.0 | 7.0 | 0.00 | 0.00 | 0.00 | 41 | 1004.8 |
| 20260505220551 | 75 | 215 | 0.0 | 1.0 | 0.00 | 0.00 | 0.00 | 40 | 1004.9 |
| 20260505220048 | 76 | 210 | 5.0 | 7.0 | 0.00 | 0.00 | 0.00 | 40 | 1004.8 |